Wind_Speed
33 35 37 34 26 22 30 33 12 18 14 15 12 8 9 9 13 15 15 11 11 12 15 15 13 13 12 11 9 7 8 10 12 14 12 7 1 3 6 3 5 5 4
24 27 33 32 28 31 35 26 20 12 13 14 10 9 8 10 9 10 11 9 11 14 13 14 15 12 10 9 7 8 8 9 14 11 8 7 4 4 3 4 4 5 2
19 24 26 12 26 29 30 30 27 17 20 13 14 12 13 10 8 11 12 12 12 12 13 11 10 12 14 12 10 11 10 13 11 11 9 6 4 5 6 5 2 2 3
21 21 25 19 13 24 33 28 24 22 22 16 12 11 14 11 10 13 14 12 11 12 12 12 11 10 11 15 12 10 10 9 9 8 8 9 8 7 4 1 3 6 4
15 19 23 20 14 22 27 21 21 26 22 15 13 14 14 11 13 14 13 11 11 11 10 11 10 7 11 13 10 12 12 11 10 11 7 7 12 12 12 6 6 6 3
14 19 16 26 23 23 27 34 28 19 19 19 17 15 13 13 12 11 11 11 12 13 11 12 11 7 8 8 8 11 11 11 10 13 11 6 8 10 11 12 10 11 12
11 12 12 14 20 16 32 26 23 22 20 19 14 15 14 16 13 13 12 13 14 14 14 13 15 12 7 6 7 8 13 16 16 16 17 17 13 10 11 12 12 13 13
8 12 14 13 15 17 16 17 18 15 14 13 13 13 13 13 14 15 14 16 15 10 11 10 10 10 11 9 12 9 7 8 9 11 12 13 14 14 16 18 17 16 16
3 4 8 10 11 12 12 12 11 10 11 14 13 12 14 14 16 16 15 17 18 17 15 15 13 11 13 9 10 11 12 13 12 11 11 8 7 7 10 13 15 15 16
3 5 6 7 6 8 11 11 14 12 9 10 15 17 17 17 14 12 13 18 23 21 19 20 18 15 14 14 16 17 18 15 17 19 16 11 11 13 13 13 13 16 18
5 6 7 9 9 11 12 12 12 12 12 13 13 12 15 18 16 13 12 15 20 19 17 15 12 11 10 14 18 19 14 8 10 14 17 17 15 13 13 14 16 20 23
8 10 9 9 9 11 14 14 15 15 14 14 13 11 12 13 14 15 16 17 16 20 22 20 17 16 23 23 19 15 10 12 14 15 17 18 16 15 15 18 18 22 22
12 12 11 12 10 11 12 16 16 15 18 17 18 17 16 18 16 14 15 14 14 18 22 25 22 15 16 16 20 22 18 19 19 19 20 20 19 19 20 19 20 22 17
14 14 14 14 16 15 14 14 16 18 20 18 18 16 16 16 17 15 18 18 15 16 17 21 28 25 23 19 19 23 24 24 22 23 24 23 22 21 20 20 24 28 23
16 15 16 15 16 17 16 12 15 17 17 16 18 18 17 19 21 24 24 20 20 16 14 15 21 26 30 26 26 26 28 27 26 26 26 25 23 24 24 24 27 24 26
21 19 19 17 17 17 18 18 15 12 13 14 16 16 20 22 17 11 12 18 24 22 23 22 19 20 24 26 27 26 24 25 25 25 25 26 28 29 29 27 30 25 24
24 21 19 17 17 18 20 18 20 20 22 22 22 22 24 25 25 23 21 17 14 24 28 27 26 24 23 23 23 22 23 23 22 25 24 27 29 34 32 29 28 26 27
26 21 19 19 23 25 26 24 20 19 23 23 22 23 22 23 25 28 27 24 23 24 29 30 31 30 29 28 30 30 30 32 32 30 31 37 37 36 32 30 30 30 30
31 26 26 27 26 20 21 22 31 28 25 24 21 19 19 17 20 26 30 30 31 33 36 37 37 36 36 36 35 34 35 35 33 32 35 35 33 32 35 33 33 34 33
27 27 26 31 30 27 27 23 22 20 22 26 30 27 24 25 24 25 27 34 33 33 34 37 39 39 38 36 35 34 33 33 34 36 38 36 35 37 41 39 38 36 36
27 26 28 25 28 31 30 28 28 26 27 28 28 29 29 29 28 30 28 27 30 34 35 36 35 37 33 33 36 37 38 36 36 38 42 42 39 41 43 42 40 38 37
22 25 28 34 31 33 33 32 34 32 32 33 34 34 33 31 34 32 34 33 36 36 35 35 34 34 32 32 30 29 32 35 34 28 39 46 50 45 44 46 44 41 38
27 28 26 29 28 22 26 33 36 38 37 35 34 36 38 36 39 39 36 35 34 37 39 37 32 36 37 34 33 31 32 34 27 26 26 38 42 48 52 51 47 47 45
31 32 29 30 27 20 32 39 34 36 34 36 40 42 40 42 41 40 38 33 31 32 35 38 36 37 38 33 36 32 26 33 36 37 40 40 41 45 53 54 52 55 53
31 25 28 27 21 20 14 19 18 21 26 32 40 42 47 41 35 37 30 32 33 33 37 37 33 33 35 32 32 36 38 26 37 41 35 43 41 43 43 44 58 55 53
20 21 24 23 24 26 28 28 25 35 30 31 32 32 34 42 28 36 39 34 30 35 39 26 26 28 29 29 32 30 29 34 40 37 29 41 47 49 37 37 51 48 39
Wind_Direction
237 238 227 223 227 241 223 219 252 253 227 226 205 237 231 215 220 226 228 249 210 190 186 183 180 182 199 209 211 208 216 203 176 156 167 171 269 233 231 295 188 144 141
251 240 230 231 234 225 218 222 239 252 222 211 216 273 211 185 189 201 223 213 191 189 194 194 199 198 213 222 211 199 179 159 164 157 158 142 119 55 123 136 154 194 154
247 251 254 249 206 207 231 235 233 230 227 237 254 261 216 204 208 201 201 195 191 202 221 220 208 206 205 200 184 165 153 159 154 158 170 188 152 108 98 136 180 234 247
249 248 245 234 219 240 231 225 228 232 221 248 261 238 207 217 208 190 192 191 203 210 213 213 200 198 200 194 189 179 165 165 166 180 203 213 238 227 200 212 262 323 220
241 240 246 246 234 236 234 238 237 225 238 254 249 222 212 220 197 192 192 192 195 206 210 204 203 201 201 201 197 196 199 192 201 206 220 263 242 231 225 226 226 237 161
234 225 234 232 246 216 276 244 232 241 245 237 216 216 224 204 190 201 194 190 205 212 205 195 196 202 194 199 202 204 215 225 215 216 232 234 178 161 180 210 225 243 249
256 249 258 255 226 205 209 228 245 231 214 216 226 218 207 194 203 204 200 203 207 218 212 204 206 213 207 221 221 236 240 241 241 239 240 246 232 218 226 234 248 261 275
246 242 241 232 229 227 211 212 212 218 227 214 191 195 196 200 207 205 206 208 206 202 203 202 208 203 237 243 234 248 245 240 242 245 244 239 247 245 250 249 252 266 265
270 243 238 241 228 211 202 194 187 178 175 178 184 194 206 208 207 208 207 208 211 212 212 220 226 231 239 226 238 252 259 265 234 232 241 230 237 252 251 246 247 257 267
219 262 244 200 188 183 173 168 161 170 171 192 202 209 217 214 211 214 218 213 216 222 225 228 233 238 231 233 243 250 260 261 254 244 236 242 239 237 244 255 262 265 272
220 222 202 193 191 177 169 176 176 176 191 208 218 210 209 216 214 216 223 229 230 226 214 212 233 244 234 234 239 243 246 250 248 220 224 238 243 254 252 261 270 272 266
214 221 192 175 170 182 194 190 189 196 197 206 207 214 214 217 223 234 247 245 238 230 223 219 235 245 243 239 236 234 241 240 244 247 245 241 244 251 261 262 270 281 277
203 205 204 184 197 194 205 196 194 208 208 207 210 223 236 240 242 225 235 242 238 233 224 221 237 235 230 231 241 238 237 244 246 252 254 257 262 271 275 257 270 273 267
195 193 195 189 195 200 198 226 224 212 211 214 217 227 230 239 231 244 244 242 236 237 238 230 235 242 235 246 244 230 239 250 252 256 262 269 272 264 254 256 268 275 272
213 220 214 215 218 213 216 220 211 221 213 214 227 230 241 256 257 260 254 245 242 239 243 241 239 239 241 244 243 245 251 257 259 264 270 272 265 269 264 259 268 268 272
213 218 217 218 210 213 218 222 220 216 223 236 244 244 250 244 258 254 251 248 243 239 246 238 230 237 241 246 250 252 255 264 264 270 273 272 270 262 263 261 259 266 268
218 223 218 214 211 216 222 217 222 232 232 238 246 247 249 255 258 259 263 268 248 231 232 237 240 240 246 253 249 255 261 264 274 276 269 269 272 259 259 253 259 259 257
221 230 214 218 227 232 244 244 244 243 230 234 236 241 244 257 259 261 262 258 248 238 237 238 241 245 250 254 258 258 262 267 269 260 258 272 266 258 253 248 258 259 261
225 232 222 222 230 240 250 242 242 237 239 248 253 248 251 253 260 255 260 260 256 254 251 251 252 254 257 261 261 261 263 266 266 264 267 272 265 250 248 255 262 266 265
230 233 233 226 229 238 241 243 247 246 247 252 252 257 258 256 253 255 253 249 253 259 263 263 260 257 260 260 261 261 263 265 266 266 268 271 265 249 247 261 261 267 267
234 238 240 227 225 229 234 244 248 249 254 249 251 252 252 254 260 253 251 258 260 261 263 265 265 262 259 263 265 270 273 273 273 274 268 269 269 254 251 256 263 267 264
242 241 243 241 243 238 241 245 247 248 251 253 258 253 271 263 260 268 264 262 262 267 264 265 265 266 264 263 267 270 272 270 270 292 292 282 261 264 255 257 260 255 256
256 244 246 246 247 251 257 247 248 248 250 252 252 258 262 266 258 270 266 260 271 270 264 263 268 269 265 261 263 265 264 267 275 295 288 287 286 279 272 262 259 256 253
237 247 246 247 239 257 259 258 258 250 257 260 260 264 264 269 266 272 272 268 265 265 265 263 265 272 270 258 258 258 266 287 273 283 285 298 297 285 272 262 261 261 258
230 238 248 254 262 263 245 238 248 260 255 259 266 267 269 267 263 268 279 260 261 261 267 270 263 260 257 256 266 264 268 274 280 305 287 270 294 299 279 281 263 252 249
237 245 255 260 267 269 270 265 285 284 285 262 276 265 266 266 269 269 272 277 277 270 275 250 250 251 251 261 270 270 270 270 288 284 270 264 267 274 271 260 252 245 247
Height
1495 1496 1495 1497 1501 1504 1507 1513 1516 1516 1519 1522 1524 1526 1523 1523 1527 1531 1534 1536 1537 1538 1541 1541 1543 1544 1546 1547 1548 1549 1552 1555 1556 1558 1561 1563 1564 1564 1566 1567 1569 1569 1570
1492 1490 1489 1492 1497 1500 1504 1508 1511 1511 1513 1518 1521 1523 1521 1523 1524 1525 1529 1533 1533 1537 1539 1540 1540 1542 1543 1545 1547 1548 1550 1553 1555 1557 1560 1561 1562 1562 1563 1567 1568 1568 1568
1487 1487 1485 1484 1481 1495 1501 1503 1506 1508 1512 1514 1516 1519 1519 1521 1520 1522 1525 1529 1532 1534 1539 1539 1538 1539 1542 1543 1546 1547 1548 1550 1553 1555 1558 1561 1561 1563 1562 1565 1568 1568 1567
1480 1480 1480 1484 1482 1490 1493 1502 1504 1508 1508 1511 1514 1515 1516 1519 1519 1519 1523 1524 1529 1532 1534 1538 1537 1539 1541 1541 1544 1545 1547 1548 1551 1554 1556 1557 1558 1561 1561 1564 1566 1565 1565
1475 1477 1477 1482 1486 1494 1494 1492 1501 1503 1505 1508 1510 1511 1513 1514 1517 1520 1520 1522 1527 1530 1531 1534 1537 1538 1540 1541 1542 1544 1546 1548 1549 1550 1552 1552 1555 1557 1560 1561 1563 1564 1565
1472 1474 1479 1482 1484 1490 1488 1487 1497 1501 1502 1502 1505 1507 1509 1512 1513 1518 1518 1521 1525 1527 1529 1532 1534 1537 1538 1540 1541 1541 1544 1547 1548 1549 1550 1551 1554 1555 1556 1559 1560 1561 1561
1470 1470 1475 1479 1480 1484 1472 1489 1495 1496 1496 1497 1500 1503 1506 1509 1512 1515 1518 1520 1522 1524 1526 1529 1531 1534 1536 1537 1539 1539 1540 1542 1545 1546 1547 1550 1552 1553 1554 1554 1556 1557 1557
1469 1469 1471 1475 1478 1481 1483 1487 1489 1491 1491 1493 1496 1501 1505 1507 1510 1513 1515 1518 1519 1523 1525 1527 1529 1530 1533 1534 1535 1536 1537 1538 1540 1543 1545 1547 1547 1549 1549 1550 1552 1553 1554
1472 1469 1469 1471 1475 1478 1480 1482 1485 1487 1489 1491 1496 1500 1503 1505 1508 1511 1512 1515 1518 1521 1522 1525 1526 1528 1529 1531 1533 1534 1535 1535 1539 1540 1542 1544 1545 1545 1546 1546 1547 1549 1549
1471 1472 1470 1471 1471 1474 1479 1481 1482 1486 1488 1492 1496 1499 1501 1504 1506 1508 1510 1513 1516 1518 1522 1523 1522 1522 1525 1528 1530 1532 1531 1532 1534 1536 1539 1540 1540 1540 1540 1541 1543 1544 1545
1470 1472 1473 1474 1476 1476 1478 1479 1482 1486 1489 1494 1496 1497 1500 1502 1504 1506 1508 1510 1512 1515 1517 1519 1519 1520 1522 1524 1526 1528 1527 1530 1531 1532 1534 1535 1535 1535 1535 1537 1538 1539 1538
1468 1471 1472 1473 1475 1476 1478 1481 1484 1487 1489 1492 1493 1496 1498 1500 1501 1503 1505 1506 1508 1510 1512 1514 1515 1516 1517 1520 1522 1523 1524 1525 1527 1529 1530 1530 1530 1530 1531 1531 1532 1532 1531
1465 1468 1469 1471 1474 1475 1477 1479 1482 1485 1487 1489 1491 1493 1494 1496 1498 1499 1500 1502 1503 1505 1506 1508 1510 1512 1513 1515 1516 1519 1520 1522 1523 1523 1524 1525 1526 1526 1526 1526 1525 1525 1524
1462 1465 1467 1469 1471 1473 1474 1476 1478 1481 1483 1485 1487 1488 1490 1491 1492 1493 1495 1497 1499 1500 1501 1503 1505 1507 1509 1511 1512 1514 1516 1517 1518 1518 1519 1519 1520 1520 1520 1520 1520 1518 1517
1461 1463 1465 1466 1468 1470 1471 1473 1475 1477 1479 1480 1482 1484 1485 1486 1487 1488 1490 1492 1494 1495 1497 1498 1499 1501 1503 1505 1507 1509 1511 1512 1512 1512 1513 1513 1513 1513 1513 1514 1514 1514 1511
1458 1460 1461 1463 1465 1466 1467 1470 1471 1473 1474 1477 1479 1481 1481 1482 1482 1483 1484 1486 1488 1491 1493 1493 1494 1496 1497 1499 1500 1502 1503 1504 1504 1505 1505 1505 1504 1504 1504 1506 1507 1507 1506
1453 1456 1459 1461 1461 1462 1463 1464 1467 1469 1471 1473 1475 1476 1477 1478 1478 1480 1480 1482 1483 1485 1485 1487 1488 1489 1491 1492 1494 1495 1495 1496 1497 1496 1495 1495 1495 1495 1497 1497 1498 1498 1497
1448 1451 1453 1456 1457 1459 1459 1460 1462 1464 1466 1467 1468 1469 1471 1472 1472 1473 1475 1476 1477 1477 1477 1478 1479 1481 1483 1484 1486 1486 1487 1487 1487 1486 1485 1485 1485 1485 1487 1487 1488 1488 1488
1441 1444 1446 1449 1452 1453 1454 1454 1455 1457 1459 1460 1462 1463 1464 1464 1465 1466 1467 1468 1468 1469 1471 1471 1471 1472 1474 1474 1475 1477 1477 1478 1478 1477 1477 1475 1475 1475 1478 1479 1479 1479 1479
1434 1437 1439 1441 1443 1445 1447 1448 1449 1450 1452 1453 1454 1455 1456 1456 1457 1457 1457 1458 1459 1459 1460 1459 1459 1461 1463 1464 1466 1468 1469 1471 1471 1469 1468 1468 1467 1467 1467 1467 1469 1470 1469
1428 1431 1433 1432 1434 1436 1438 1440 1441 1443 1444 1444 1445 1447 1447 1445 1445 1446 1447 1449 1449 1449 1450 1451 1451 1452 1452 1454 1456 1458 1459 1459 1460 1460 1460 1459 1458 1456 1457 1457 1457 1457 1458
1425 1429 1429 1431 1430 1431 1432 1432 1433 1434 1435 1436 1436 1437 1437 1437 1436 1436 1437 1437 1438 1439 1440 1442 1443 1443 1443 1445 1448 1449 1448 1447 1449 1449 1451 1449 1447 1448 1446 1445 1445 1445 1446
1422 1420 1422 1427 1425 1424 1422 1423 1425 1426 1428 1429 1430 1430 1429 1428 1426 1426 1427 1427 1428 1428 1428 1430 1432 1433 1434 1435 1437 1436 1436 1437 1438 1436 1436 1434 1438 1436 1433 1431 1430 1430 1429
1414 1418 1416 1417 1418 1415 1413 1414 1416 1419 1421 1421 1422 1420 1418 1416 1416 1415 1415 1416 1417 1417 1418 1419 1421 1421 1422 1424 1426 1428 1427 1426 1428 1427 1424 1424 1421 1419 1420 1416 1416 1414 1413
1407 1411 1412 1411 1409 1406 1407 1408 1410 1411 1409 1410 1410 1409 1406 1406 1407 1407 1406 1406 1407 1408 1409 1409 1409 1412 1413 1413 1415 1417 1415 1417 1416 1415 1407 1411 1407 1403 1400 1401 1397 1404 1402
1400 1401 1403 1402 1402 1403 1403 1401 1400 1401 1398 1398 1397 1395 1395 1396 1399 1397 1396 1397 1398 1399 1399 1401 1404 1404 1405 1402 1402 1403 1402 1402 1400 1397 1399 1397 1394 1394 1391 1388 1390 1386 1386